Погода в Шымкенте

Погода в Шымкенте : погода сейчас, прогноз погоды и архив. Всё, что Вы хотите узнать о погоде в Шымкенте!

Поиск расширенной информации на нашем сайте:

Полезная информация:

Другие новости

Новости СМИ2

Главная страница сайта

Новости сайта

03.07.2017

Напоминаем, что на нашем специализированном сайте Метеоцентр.Азия вы можете получить высокодетализированные автоматические прогнозы погоды по пунктам России, СНГ и мира в авиационном формате (включающие направление и скорость ветра, видимость, явления погоды, количество и форму облачности, нижнюю и верхнюю границу облачности).

Рекомендуем:

Погода в Шымкенте - сегодня

Время (UTC), дата Ветер
(°,м/с) 
Видим.   Явления Облачность Т
(°С)
Тd
(°С)
f(%) Тe
(°С)
Pmin
(гПа)
dP
(гПа)
Po
(мм)
O2
(г/м3)
Тmin Tmax R s Состояние
почвы
00 22.05.19 230 (ЮЗ) 20000 м  {ливн. осадки}  9/9 600 м кучево-дожд. 
[Cb cap]
+15.3 +9.3 67 +18  1012.3  2.6  707  268           
03 22.05.19 270 (З) 20000 м    8/5 600 м средняя 
[Sc|Ac cast]
+17.6 +8.1 54 +19  1013.2  1.4  709  267      0.0     
06 22.05.19 310 (СЗ) 20000 м    6/4 600 м средняя 
[Sc|Ac trans]
+18.9 +5.9 43 +20  1014.5  1.4  710  266  +15.2    0.0     
09 22.05.19 290 (З) 20000 м    8/4 600 м средняя 
[Sc|Ac und]
+20.2 +3.9 34 +20  1014  -0.2  709  265           
12 22.05.19 300 (СЗ) 20000 м    10/10 600 м 
[Sc]
+17.7 +2.3 36 +19  1015.3  0.7  710  268           
15 22.05.19 тихо ()   20000 м    10/10 600 м 
[Sc]
+14.5 +3 46 +15  1017.3  1.1  711  271    +20.9       
18 22.05.19 тихо ()   н/о    3/0 верхняя 
[Ci fib]
+10.6 +2.1 56 +11  1018.9  0.5  711  275    +20.9       
21 22.05.19 100 (В) н/о    6/0 средняя, верхняя 
[Ac trans|Ci fib]
+8.3 +4.3 76 +9  1017.7  -1.6  710  277           
00 23.05.19 100 (В) 20000 м    8/0 средняя, верхняя 
[Ac trans|Ci fib]
+6.4 +1.6 71 +7  1017.5  -0.7  709  279           
03 23.05.19 020 (С) 20000 м    9/0 верхняя 
[Ci ing]
+17.3 +4.6 43 +19  1014.8  -0.1  710  268           
06 23.05.19 050 (СВ) 20000 м    8/0 верхняя 
[Ci ing]
+22.4 +6 35 +22  1012.6  -0.9  709  263  +6         
09 23.05.19 050 (СВ) 20000 м    8/0 верхняя 
[Ci ing]
+24.4 +6.2 31 +24  1010.3  -1.7  708  261           
12 23.05.19 360 (С) 20000 м    8/0 верхняя 
[Ci ing]
+22.7 +4.6 31 +23  1009.5  -1.1  707  262           
15 23.05.19 040 (СВ) 20000 м    9/3 600 м средняя, верхняя 
[Sc|Ac trans|Ci ing]
+17.6 +1.8 35 +18  1010.7  707  267    +24.5       
18 23.05.19 210 (ЮЗ) н/о    6/0 средняя 
[Ac trans]
+12.8 +2.4 49 +14  1011.7  -0.3  707  271    +24.5       
21 23.05.19 090 (В) н/о    3/0 средняя 
[Ac trans]
+10.8 +5.1 68 +12  1010.9  -1.1  706  273           
00 24.05.19 280 (З) 20000 м    4/0 верхняя 
[Ci ing]
+9.8 +5.8 76 +11  1010.4  -0.7  705  273           
03 24.05.19 020 (С) 20000 м    10/0 средняя, верхняя 
[Ac trans|Ci ing]
+19.6 +11.1 58 +25  1008.5  0.6  706  263           
06 24.05.19 270 (З) 20000 м    10/5 600 м средняя 
[Sc|Ac As]
+21.6 +7 39 +22  1008.4  0.3  706  262  +9.5         
09 24.05.19 190 (Ю) 20000 м  слаб. ливневой дождь  10/10 600 м кучево-дожд. 
[Cb cap]
+16.7 +6.1 50 +17  1011  1.3  707  267           
12 24.05.19 180 (Ю) 4000 м  слаб. ливневой дождь  10/10 600 м кучево-дожд. 
[Cb cap]
+12 +10.7 92 +15  1014.8  2.5  709  271           
15 24.05.19 140 (ЮВ) 4000 м  в посл. час ливневой дождь  10/8 600 м кучево-дожд., средняя 
[Cb cap|Ac trans]
+12 +10.1 88 +15  1015.5  0.6  709  272    +22.1     
18 24.05.19 120 (ЮВ) н/о  {ливн. осадки}  8/5 600 м кучево-дожд., средняя 
[Cb cap|Ac trans]
+12.6 +7.9 73 +14  1015.4  709  272    +22.1     
21 24.05.19 150 (ЮВ) н/о    ясно 
+12 +6.5 69 +12  1015.3  -0.1  709  273           
00 25.05.19 090 (В) 20000 м    8/0 средняя, верхняя 
[Ac trans|Ci ing]
+10 +6 76 +10  1015.5  -0.4  709  274           
Время (UTC), дата Ветер
(°,м/с) 
Видим.   Явления Облачность Т
(°С)
Тd
(°С)
f(%) Тe
(°С)
Pmin
(гПа)
dP
(гПа)
Po
(мм)
O2
(г/м3)
Тmin Tmax R s Состояние
почвы

Для получения пояснительной информации подведите курсор к названию столбца.

ПОГОДА в Шымкенте - архив

Всё, что Вы хотите узнать о погоде в Шымкенте - удобно и подробно!

Выберите нужную дату (начиная с 1 января 2018* года) и нажмите кнопку "Найти".
Будут отображены архивные сводки погоды по пункту Шымкент, начиная с указанной даты.


Отображать данные в формате CSV (для использования в таблицах Excel)


Внимание! Наш архив погоды предназначен исключительно для личного некоммерческого использования в познавательных целях. Если Вам необходимы официальные справки о состоянии погоды (для производственных, юридических, коммерческих и т.п. целей), обращайтесь в органы Росгидромета.

*Примечание: данная дата относится к архиву по метеостанциям СССР (Россия, СНГ, Балтия).
Архив по метеостанциям Зарубежной Европы и Азии (кроме Китая) хранится 10 дней, по другим регионам земного шара (Китай, Африка, Америка, Австралия, Океания) - 1 день.

Шымкент - район местоположения метеостанции


Название, широта, долгота, высота метеостанции:
Шымкент (город) 42.3°ш. 69.7°д. 604 м над ур. моря [Казахстан]

Дополнительная информация

В oтличие oт бoльшинства пoгoдных сайтoв мы публикуем пoдрoбную метеoинфoрмацию в детальнoм прoфессиoнальнoм фoрмате.

Характеристики температуры и влажнoсти вoздуха измеряются на высoте 2 м в тени вдали oт зданий и деревьев.
Скoрoсть ветра измеряется на высoте 10 м (на урoвне рoста челoвека скoрoсть ветра ниже в 1.5-2 раза). Если метеoстанция нахoдится в гoрoде или в лесу, тo скoрoсть ветра занижена на 2-4 м/с пo сравнению с oткрытым местoм. Скoрoсть ветра над акватoриями крупных рек и oзёр, а также на вершинах хoлмoв на 2-5 м/с выше, чем в oбычных услoвиях.
Атмoсфернoе давление в разных тoчках местнoсти мoжет значительнo oтличаться oт давления на метеoстанции, в зависимoсти oт услoвий рельефа (при пoдъёме на 10 м давление пoнижается примернo на 1 мм рт.ст.).